Weather History for KEKN - December, 2013

Change the Weather History Date:

Tuesday, December 24, 2013

  Actual Average Record
Temperature  
Mean Temperature 19 °F 30 °F  
Max Temperature 29 °F 40 °F 65 °F (1965)
Min Temperature 8 °F 21 °F -22 °F (1989)
Degree Days  
Heating Degree Days 46 35  
Month to date heating degree days 678 763  
Since 1 July heating degree days 1973 2047  
Cooling Degree Days 0 0  
Month to date cooling degree days 0 0  
Year to date cooling degree days 533 475  
Moisture  
Dew Point 15 °F    
Average Humidity 64    
Maximum Humidity 81    
Minimum Humidity 47    
Precipitation  
Precipitation 0.02 in 0.11 in 0.97 in (1984)
Month to date precipitation 5.16 2.58  
Year to date precipitation 44.90 45.25  
Snow  
Snow 0.70 in - - ()
Month to date snowfall 9.0  
Since 1 September snowfall 15.9  
Snow Depth 0.00 in    
Sea Level Pressure  
Sea Level Pressure 30.34 in    
Wind  
Wind Speed 7 mph (WNW)    
Max Wind Speed 20 mph    
Max Gust Speed 31 mph    
Visibility 7 miles    
Events Snow    
T = Trace of Precipitation, MM = Missing Value Source: NWS Daily Summary

Daily Weather History Graph

Daily Weather History Graph

Search for Another Location

Airport or City:

Trip Planner

Search our weather history database for the weather conditions in past years. The results will help you decide how hot, cold, wet, or windy it might be!

Date:

Astronomy

Dec. 24, 2013 Rise Set
Actual Time 7:35 AM EST 5:02 PM EST
Civil Twilight 7:05 AM EST 5:32 PM EST
Nautical Twilight 6:32 AM EST 6:06 PM EST
Astronomical Twilight 5:59 AM EST 6:38 PM EST
Moon No Moon Rise 11:32 AM EST (12/24)
Length of Visible Light 10h 26m
Length of Day
9h 26m
Waning Gibbous, 59% of the Moon is Illuminated
Dec 24
Waning Gibbous
Dec 25
Last Quarter
Jan 1
New
Jan 7
First Quarter
Jan 15
Full

Hourly Weather History & Observations

Time (EST) Temp. Windchill Dew Point Humidity Pressure Visibility Wind Dir Wind Speed Gust Speed Precip Events Conditions
12:51 AM 28.9 °F 21.1 °F 19.9 °F 69% 30.30 in 10.0 mi West 8.1 mph - N/A   Overcast
1:51 AM 28.0 °F 21.7 °F 19.0 °F 69% 30.30 in 10.0 mi NW 5.8 mph - N/A   Overcast
2:51 AM 28.0 °F 19.3 °F 19.9 °F 72% 30.29 in 10.0 mi WNW 9.2 mph - N/A   Overcast
3:51 AM 27.0 °F 21.6 °F 19.0 °F 72% 30.30 in 10.0 mi Variable 4.6 mph - N/A   Overcast
4:51 AM 27.0 °F 18.7 °F 18.0 °F 69% 30.28 in 10.0 mi West 8.1 mph - N/A   Overcast
5:51 AM 27.0 °F 23.0 °F 17.1 °F 66% 30.28 in 10.0 mi Variable 3.5 mph - N/A   Overcast
6:51 AM 27.0 °F 19.5 °F 18.0 °F 69% 30.29 in 10.0 mi WSW 6.9 mph - N/A   Overcast
7:44 AM 26.6 °F 21.2 °F 17.6 °F 69% 30.21 in 10.0 mi WSW 4.6 mph - N/A   Overcast
7:51 AM 27.0 °F 20.5 °F 18.0 °F 69% 30.29 in 10.0 mi West 5.8 mph - N/A   Overcast
8:51 AM 27.0 °F 21.6 °F 19.9 °F 75% 30.30 in 2.5 mi West 4.6 mph - 0.00 in Snow Light Snow
9:19 AM 26.6 °F 22.6 °F 21.2 °F 80% 30.22 in 1.5 mi WNW 3.5 mph - 0.00 in Snow Light Snow
9:39 AM 26.6 °F 17.5 °F 21.2 °F 80% 30.23 in 1.5 mi WNW 9.2 mph - 0.01 in Snow Light Snow
9:46 AM 26.6 °F 19.1 °F 19.4 °F 74% 30.23 in 2.0 mi West 6.9 mph - 0.01 in Snow Light Snow
9:51 AM 26.1 °F 17.6 °F 21.0 °F 81% 30.32 in 2.5 mi West 8.1 mph 16.1 mph 0.01 in Snow Light Snow
10:26 AM 26.6 °F 15.7 °F 19.4 °F 74% 30.25 in 3.0 mi West 12.7 mph 19.6 mph 0.00 in Snow Light Snow
10:45 AM 26.6 °F 16.2 °F 19.4 °F 74% 30.25 in 1.8 mi WNW 11.5 mph 20.7 mph 0.00 in Snow Light Snow
10:51 AM 26.1 °F 16.8 °F 19.9 °F 78% 30.33 in 1.2 mi WNW 9.2 mph 20.7 mph 0.00 in Snow Light Snow
11:13 AM 24.8 °F 15.3 °F 19.4 °F 80% 30.25 in 2.0 mi West 9.2 mph 18.4 mph 0.00 in Snow Light Snow
11:17 AM 24.8 °F 14.0 °F 19.4 °F 80% 30.25 in 3.0 mi West 11.5 mph 18.4 mph 0.00 in Snow Light Snow
11:29 AM 26.6 °F 14.7 °F 19.4 °F 74% 30.25 in 1.8 mi NW 15.0 mph 20.7 mph 0.00 in Snow Light Snow
11:51 AM 24.1 °F 13.1 °F 18.0 °F 77% 30.34 in 2.5 mi West 11.5 mph 21.9 mph 0.00 in Snow Light Snow
12:00 PM 24.8 °F 14.6 °F 17.6 °F 74% 30.25 in 4.0 mi West 10.4 mph 21.9 mph 0.00 in Snow Light Snow
12:20 PM 24.8 °F 11.9 °F 17.6 °F 74% 30.25 in 1.8 mi NW 16.1 mph 25.3 mph 0.00 in Snow Light Snow
12:31 PM 24.8 °F 15.3 °F 17.6 °F 74% 30.25 in 3.0 mi NW 9.2 mph 19.6 mph 0.01 in Snow Light Snow
12:51 PM 24.1 °F 13.7 °F 17.1 °F 75% 30.34 in 5.0 mi NW 10.4 mph - 0.01 in Snow Light Snow
12:58 PM 24.8 °F 13.4 °F 17.6 °F 74% 30.25 in 1.8 mi NW 12.7 mph - 0.00 in Snow Light Snow
1:09 PM 23.0 °F 10.6 °F 17.6 °F 80% 30.27 in 1.2 mi NW 13.8 mph 21.9 mph 0.00 in Snow Light Snow
1:21 PM 21.2 °F 7.8 °F 15.8 °F 80% 30.27 in 2.5 mi WNW 15.0 mph 25.3 mph 0.00 in Snow Light Snow
1:26 PM 21.2 °F 8.9 °F 15.8 °F 80% 30.28 in 3.0 mi WNW 12.7 mph 21.9 mph 0.00 in Snow Light Snow
1:51 PM 23.0 °F 13.1 °F 14.0 °F 68% 30.38 in 9.0 mi West 9.2 mph - 0.00 in   Overcast
2:08 PM 21.2 °F 6.4 °F 10.4 °F 63% 30.29 in 10.0 mi West 18.4 mph 31.1 mph 0.00 in   Mostly Cloudy
2:51 PM 23.0 °F 12.4 °F 9.0 °F 55% 30.39 in 10.0 mi WNW 10.4 mph 24.2 mph 0.00 in   Overcast
3:51 PM 21.9 °F 9.8 °F 5.0 °F 48% 30.43 in 10.0 mi WNW 12.7 mph - N/A   Mostly Cloudy
4:51 PM 19.9 °F 8.6 °F 6.1 °F 55% 30.46 in 10.0 mi NW 10.4 mph 17.3 mph N/A   Clear
5:51 PM 18.0 °F 8.7 °F 3.9 °F 54% 30.49 in 10.0 mi WNW 6.9 mph 16.1 mph N/A   Clear
6:51 PM 17.1 °F 6.6 °F 5.0 °F 59% 30.51 in 10.0 mi NNW 8.1 mph - N/A   Clear
7:51 PM 15.1 °F 6.4 °F 3.9 °F 61% 30.54 in 10.0 mi NW 5.8 mph - N/A   Clear
8:51 PM 14.0 °F 3.9 °F 5.0 °F 67% 30.54 in 10.0 mi NW 6.9 mph - N/A   Clear
9:51 PM 12.9 °F - 5.0 °F 71% 30.53 in 10.0 mi Calm Calm - N/A   Clear
10:31 PM 10.4 °F - 3.2 °F 73% 30.42 in 10.0 mi Calm Calm - N/A   Mostly Cloudy
10:51 PM 10.9 °F - 3.9 °F 73% 30.52 in 10.0 mi Calm Calm - N/A   Mostly Cloudy
11:04 PM 10.4 °F - 5.0 °F 79% 30.41 in 10.0 mi Calm Calm - N/A   Scattered Clouds
11:51 PM 10.0 °F - 5.0 °F 80% 30.53 in 10.0 mi Calm Calm - N/A   Scattered Clouds